N5TM-4 Weather Reports


Display with metric or nautical units.
time (UTC)temp
F
wind
direction
speed
MPH
gust
MPH
rain 1hr
in
rain 24hr
in
rain mn
in
humidity
%
barometer
mb
20260906174003 94 317 1.0 5.0 0.00 0.84 0.00 53 1013.9
20260906173502 94 69 2.0 5.0 0.00 0.84 0.00 53 1013.9
20260906173001 94 360 2.0 5.0 0.00 0.84 0.00 52 1014.0
20260906172501 95 76 2.0 6.0 0.00 0.84 0.00 52 1014.1
20260906172000 95 27 2.0 6.0 0.00 0.84 0.00 50 1014.2
20260906171601 96 90 3.0 9.0 0.00 0.84 0.00 49 1014.3
20260906171100 97 338 3.0 9.0 0.00 0.84 0.00 50 1014.3
20260906170559 97 20 3.0 8.0 0.00 0.84 0.00 49 1014.4
20260906170100 97 5 4.0 7.0 0.00 0.84 0.00 51 1014.4
20260906165600 98 40 3.0 11.0 0.00 0.84 0.00 50 1014.3
20260906165059 98 307 3.0 11.0 0.00 0.84 0.00 50 1014.2
20260906164559 98 21 3.0 9.0 0.00 0.84 0.00 50 1014.3
20260906164058 97 334 2.0 10.0 0.00 0.84 0.00 52 1014.4
20260906163559 97 327 3.0 10.0 0.00 0.84 0.00 49 1014.4
20260906163104 98 324 2.0 8.0 0.00 0.84 0.00 50 1014.4
20260906162557 98 321 4.0 8.0 0.00 0.84 0.00 53 1014.4
20260906162058 97 295 3.0 8.0 0.00 0.84 0.00 51 1014.6
20260906161605 96 311 2.0 8.0 0.00 0.84 0.00 54 1014.5
20260906161054 96 336 3.0 8.0 0.00 0.84 0.00 56 1014.5
20260906160554 95 296 2.0 5.0 0.00 0.84 0.00 63 1014.4
20260906160054 94 296 2.0 7.0 0.00 0.84 0.00 59 1014.3
20260906155553 93 342 1.0 7.0 0.00 0.84 0.00 58 1014.4
20260906155055 94 346 2.0 5.0 0.00 0.84 0.00 57 1014.5
20260906154553 95 320 1.0 5.0 0.00 0.84 0.00 56 1014.5
20260906154053 96 309 1.0 10.0 0.00 0.84 0.00 55 1014.5
20260906153551 97 310 3.0 10.0 0.00 0.84 0.00 56 1014.4
20260906153051 95 221 1.0 4.0 0.00 0.84 0.00 58 1014.3
20260906152550 94 99 1.0 3.0 0.00 0.84 0.00 60 1014.3
20260906152051 96 65 0.0 3.0 0.00 0.84 0.00 59 1014.2
20260906151550 95 329 2.0 3.0 0.00 0.84 0.00 62 1014.2
20260906151047 94 227 0.0 3.0 0.00 0.84 0.00 64 1014.2
20260906150549 93 212 1.0 3.0 0.00 0.84 0.00 65 1014.2
20260906150045 93 211 0.0 2.0 0.00 0.84 0.00 67 1014.1
20260906145543 92 211 1.0 2.0 0.00 0.84 0.00 69 1014.2
20260906145041 91 138 0.0 3.0 0.00 0.84 0.00 70 1014.3
20260906144540 90 138 1.0 3.0 0.00 0.84 0.00 72 1014.2
20260906144041 90 139 1.0 4.0 0.00 0.84 0.00 73 1014.2
20260906143537 88 139 1.0 4.0 0.00 0.84 0.00 76 1014.3
20260906143042 88 126 1.0 3.0 0.00 0.84 0.00 76 1014.3
20260906142535 86 38 1.0 4.0 0.00 0.84 0.00 78 1014.3
20260906142034 86 37 1.0 4.0 0.00 0.84 0.00 79 1014.2
20260906141533 85 168 1.0 3.0 0.00 0.84 0.00 80 1014.2
20260906141033 85 168 1.0 3.0 0.00 0.84 0.00 80 1014.2
20260906140532 85 168 1.0 3.0 0.00 0.84 0.00 79 1014.2
20260906140031 85 168 0.0 3.0 0.00 0.84 0.00 80 1014.3
20260906135530 85 168 1.0 3.0 0.00 0.84 0.00 80 1014.2
20260906135029 85 168 0.0 3.0 0.00 0.84 0.00 81 1014.0
20260906134528 84 168 1.0 5.0 0.00 0.84 0.00 81 1014.0
20260906134028 84 168 1.0 5.0 0.00 0.84 0.00 81 1014.1
20260906133528 84 168 0.0 3.0 0.00 0.84 0.00 82 1014.1
20260906133035 83 168 0.0 2.0 0.00 0.84 0.00 84 1014.0
20260906132524 83 168 0.0 2.0 0.00 0.84 0.00 85 1014.0
20260906132023 82 168 0.0 2.0 0.00 0.84 0.00 87 1013.9
20260906131521 81 168 1.0 2.0 0.00 0.84 0.00 89 1013.9
20260906131020 80 168 0.0 2.0 0.00 0.84 0.00 90 1013.8
20260906130524 80 168 0.0 2.0 0.00 0.84 0.00 92 1013.7
20260906130018 79 168 0.0 1.0 0.00 0.84 0.00 93 1013.5
20260906125518 79 168 0.0 1.0 0.00 0.84 0.00 93 1013.5
20260906125017 78 168 0.0 1.0 0.00 0.84 0.00 92 1013.5
20260906124516 78 168 0.0 1.0 0.00 0.84 0.00 92 1013.5
20260906124016 78 168 0.0 1.0 0.00 0.84 0.00 92 1013.5
20260906123516 78 168 0.0 1.0 0.00 0.84 0.00 92 1013.4
20260906123021 78 168 0.0 2.0 0.00 0.84 0.00 92 1013.4
20260906122514 78 168 0.0 2.0 0.00 0.84 0.00 92 1013.3
20260906122012 78 168 0.0 1.0 0.00 0.84 0.00 92 1013.2
20260906121512 78 168 0.0 1.0 0.00 0.84 0.00 92 1013.0
20260906121011 78 168 0.0 0.0 0.00 0.84 0.00 92 1012.9
20260906120510 78 168 0.0 1.0 0.00 0.84 0.00 92 1012.8
20260906120011 78 168 0.0 1.0 0.00 0.84 0.00 92 1012.8
20260906115511 78 168 0.0 1.0 0.00 0.84 0.00 92 1012.7
20260906115011 78 168 0.0 1.0 0.00 0.84 0.00 92 1012.7
20260906114529 78 168 0.0 1.0 0.00 0.84 0.00 92 1012.7
20260906114008 78 168 0.0 1.0 0.00 0.84 0.00 91 1012.6
20260906113509 78 168 0.0 1.0 0.00 0.84 0.00 92 1012.6
20260906113009 78 168 0.0 1.0 0.00 0.84 0.00 91 1012.5
20260906112510 78 168 0.0 1.0 0.00 0.84 0.00 91 1012.4
20260906112008 78 168 0.0 1.0 0.00 0.84 0.00 91 1012.5
20260906111517 78 168 0.0 1.0 0.00 0.84 0.00 91 1012.5
20260906111007 78 168 0.0 1.0 0.00 0.84 0.00 91 1012.6
20260906110510 78 168 0.0 1.0 0.00 0.84 0.00 91 1012.6
20260906110009 78 168 0.0 1.0 0.00 0.84 0.00 90 1012.6
20260906105509 78 168 0.0 0.0 0.00 0.84 0.00 90 1012.6
20260906105007 78 168 0.0 0.0 0.00 0.84 0.00 90 1012.6
20260906104510 78 168 0.0 0.0 0.00 0.84 0.00 90 1012.5
20260906104006 78 168 0.0 0.0 0.00 0.84 0.00 90 1012.4
20260906103505 78 168 0.0 0.0 0.00 0.84 0.00 90 1012.5
20260906103005 78 168 0.0 0.0 0.00 0.84 0.00 90 1012.4
20260906102505 78 168 0.0 0.0 0.00 0.84 0.00 90 1012.3
20260906102005 78 168 0.0 0.0 0.00 0.84 0.00 90 1012.3
20260906101505 78 168 0.0 1.0 0.00 0.84 0.00 90 1012.3
20260906101004 79 168 0.0 1.0 0.00 0.84 0.00 91 1012.3
20260906100504 79 168 0.0 1.0 0.00 0.84 0.00 90 1012.2
20260906100004 79 168 0.0 1.0 0.00 0.84 0.00 90 1012.2
20260906095506 79 168 0.0 1.0 0.00 0.84 0.00 90 1012.2
20260906095004 79 168 0.0 1.0 0.00 0.84 0.00 90 1012.2
20260906094502 79 168 0.0 1.0 0.00 0.84 0.00 90 1012.0
20260906094002 79 168 0.0 1.0 0.00 0.84 0.00 90 1012.0
20260906093502 79 168 0.0 1.0 0.00 0.84 0.00 90 1011.9
20260906093002 79 168 0.0 1.0 0.00 0.84 0.00 90 1011.9
20260906092502 79 168 0.0 1.0 0.00 0.84 0.00 90 1011.9
20260906092002 79 168 0.0 1.0 0.00 0.84 0.00 90 1011.9
20260906091504 79 168 0.0 1.0 0.00 0.84 0.00 90 1011.9
20260906091001 79 168 0.0 1.0 0.00 0.84 0.00 90 1011.9
20260906090500 79 168 0.0 2.0 0.00 0.84 0.00 90 1011.9
20260906090109 79 168 0.0 2.0 0.00 0.84 0.00 90 1012.0
20260906085559 79 168 0.0 2.0 0.00 0.84 0.00 89 1012.0
20260906085100 79 168 0.0 1.0 0.00 0.84 0.00 89 1012.0
20260906084559 79 168 0.0 1.0 0.00 0.84 0.00 89 1011.9
20260906084100 79 168 0.0 1.0 0.00 0.84 0.00 89 1011.9
20260906083559 79 168 0.0 1.0 0.00 0.84 0.00 89 1011.9
20260906083059 79 168 0.0 1.0 0.00 0.84 0.00 89 1012.0
20260906082558 79 168 0.0 1.0 0.00 0.84 0.00 89 1011.9
20260906082058 79 168 0.0 1.0 0.00 0.84 0.00 89 1011.9
20260906081601 79 168 0.0 1.0 0.00 0.84 0.00 89 1011.8
20260906081057 79 168 0.0 1.0 0.00 0.84 0.00 89 1011.9
20260906080558 79 168 0.0 1.0 0.00 0.84 0.00 89 1011.9
20260906080103 79 168 0.0 1.0 0.00 0.84 0.00 88 1012.0
20260906075556 79 168 0.0 1.0 0.00 0.84 0.00 88 1012.0
20260906075056 79 168 0.0 0.0 0.00 0.84 0.00 88 1012.1
20260906074556 79 168 0.0 1.0 0.00 0.84 0.00 88 1012.0
20260906074055 79 168 0.0 1.0 0.00 0.84 0.00 88 1012.0
20260906073554 79 168 0.0 1.0 0.00 0.84 0.00 88 1012.2
20260906073054 79 168 0.0 1.0 0.00 0.84 0.00 88 1012.2
20260906072554 80 168 0.0 1.0 0.00 0.84 0.00 88 1012.2
20260906072053 80 168 0.0 1.0 0.00 0.84 0.00 88 1012.3
20260906071554 80 168 0.0 2.0 0.00 0.84 0.00 87 1012.3
20260906071052 80 168 0.0 2.0 0.00 0.84 0.00 87 1012.3
20260906070552 80 168 0.0 1.0 0.00 0.84 0.00 87 1012.3
20260906070051 80 168 0.0 1.0 0.00 0.84 0.00 87 1012.4
20260906065553 80 168 0.0 1.0 0.00 0.84 0.00 87 1012.5
20260906065051 80 168 0.0 1.0 0.00 0.84 0.00 87 1012.6
20260906064550 80 168 0.0 1.0 0.00 0.84 0.00 87 1012.6
20260906064049 80 168 0.0 1.0 0.00 0.84 0.00 87 1012.5
20260906063552 80 168 0.0 1.0 0.00 0.84 0.00 87 1012.5
20260906063050 80 168 0.0 1.0 0.00 0.84 0.00 87 1012.4
20260906062553 80 168 0.0 2.0 0.00 0.84 0.00 87 1012.4
20260906062049 80 168 0.0 2.0 0.00 0.84 0.00 87 1012.5
20260906061549 80 168 0.0 2.0 0.00 0.84 0.00 87 1012.4
20260906061048 80 168 0.0 2.0 0.00 0.84 0.00 87 1012.4
20260906060548 80 168 0.0 2.0 0.00 0.84 0.00 87 1012.5
20260906060115 80 168 0.0 1.0 0.00 0.84 0.00 87 1012.5
20260906055047 80 168 0.0 3.0 0.00 0.84 0.00 87 1012.5
20260906054545 80 168 0.0 3.0 0.00 0.84 0.00 86 1012.4
20260906054045 80 168 0.0 2.0 0.00 0.84 0.00 86 1012.4
20260906053545 80 168 0.0 2.0 0.00 0.84 0.00 86 1012.5
20260906053045 80 168 0.0 3.0 0.00 0.84 0.00 86 1012.4
20260906052544 80 168 0.0 3.0 0.00 0.84 0.00 86 1012.5
20260906052044 80 168 0.0 2.0 0.00 0.84 0.00 86 1012.6
20260906051543 80 168 0.0 2.0 0.00 0.84 0.00 86 1012.6
20260906051045 80 168 0.0 3.0 0.00 0.84 0.00 86 1012.6
20260906050542 80 168 1.0 3.0 0.00 0.84 0.00 86 1012.6
20260906050041 80 168 1.0 3.0 0.00 0.84 0.00 86 1012.6
20260906045541 80 168 0.0 2.0 0.00 0.84 0.84 86 1012.6
20260906045041 80 168 0.0 2.0 0.00 0.84 0.84 86 1012.7
20260906044543 80 168 0.0 2.0 0.00 0.84 0.84 86 1012.7
20260906044044 80 168 0.0 2.0 0.00 0.84 0.84 85 1012.7
20260906043540 80 168 0.0 3.0 0.00 0.84 0.84 85 1012.6
20260906043041 80 168 0.0 3.0 0.00 0.84 0.84 85 1012.6
20260906042541 80 168 0.0 3.0 0.00 0.84 0.84 85 1012.5
20260906042040 80 168 0.0 5.0 0.00 0.84 0.84 85 1012.5
20260906041541 80 168 0.0 5.0 0.00 0.84 0.84 85 1012.7
20260906041040 80 164 1.0 5.0 0.00 0.84 0.84 85 1012.6
20260906040540 80 161 1.0 3.0 0.00 0.84 0.84 85 1012.7
20260906040042 81 161 1.0 2.0 0.00 0.84 0.84 85 1012.8
20260906035541 81 161 0.0 5.0 0.00 0.84 0.84 84 1012.7
20260906035039 81 161 0.0 5.0 0.00 0.84 0.84 84 1012.8
20260906034546 81 161 1.0 3.0 0.00 0.84 0.84 84 1012.8
20260906034038 80 161 0.0 2.0 0.00 0.84 0.84 85 1012.8
20260906033538 81 161 0.0 2.0 0.00 0.84 0.84 85 1012.7
20260906033040 80 161 0.0 2.0 0.00 0.84 0.84 85 1012.7
20260906032538 81 161 0.0 2.0 0.00 0.84 0.84 85 1012.7
20260906032038 81 161 0.0 2.0 0.00 0.84 0.84 85 1012.7
20260906031605 81 161 0.0 2.0 0.00 0.84 0.84 84 1012.7
20260906031038 81 161 0.0 2.0 0.00 0.84 0.84 84 1012.7
20260906030538 81 161 0.0 2.0 0.00 0.84 0.84 84 1012.6
20260906030039 81 161 0.0 3.0 0.00 0.84 0.84 84 1012.6
20260906025537 81 161 0.0 3.0 0.00 0.84 0.84 84 1012.5
20260906025038 81 161 0.0 2.0 0.00 0.84 0.84 84 1012.4
20260906024543 81 157 0.0 1.0 0.00 0.84 0.84 84 1012.3
20260906024037 81 157 0.0 2.0 0.00 0.84 0.84 83 1012.3
20260906023537 81 157 0.0 2.0 0.00 0.84 0.84 83 1012.2
20260906023048 81 157 0.0 5.0 0.00 0.84 0.84 83 1012.2
20260906022539 81 157 1.0 5.0 0.00 0.84 0.84 83 1012.1
20260906022136 81 182 1.0 4.0 0.00 0.84 0.84 83 1012.0
20260906021536 82 183 1.0 3.0 0.00 0.84 0.84 83 1011.9
20260906021037 82 183 1.0 4.0 0.00 0.84 0.84 83 1011.8
20260906020538 82 183 1.0 6.0 0.00 0.84 0.84 83 1011.8
20260906020047 82 188 2.0 6.0 0.00 0.84 0.84 83 1011.7
20260906015535 82 188 1.0 5.0 0.00 0.84 0.84 83 1011.5
20260906015035 82 155 1.0 3.0 0.00 0.84 0.84 83 1011.5
20260906014535 82 155 1.0 3.0 0.00 0.84 0.84 83 1011.5
20260906014035 82 150 0.0 2.0 0.00 0.84 0.84 83 1011.5
20260906013535 82 150 0.0 2.0 0.00 0.84 0.84 82 1011.5
20260906013035 82 150 0.0 3.0 0.00 0.84 0.84 82 1011.5
20260906012534 82 150 1.0 5.0 0.00 0.84 0.84 82 1011.5
20260906012034 82 150 1.0 5.0 0.00 0.84 0.84 82 1011.4
20260906011534 82 55 1.0 3.0 0.00 0.84 0.84 82 1011.3
20260906011033 82 53 1.0 3.0 0.00 0.84 0.84 82 1011.3
20260906010536 82 49 0.0 3.0 0.00 0.84 0.84 82 1011.3
20260906010035 82 49 1.0 3.0 0.00 0.84 0.84 83 1011.3
20260906005533 82 41 1.0 2.0 0.00 0.84 0.84 84 1011.3
20260906005034 83 20 0.0 2.0 0.00 0.84 0.84 84 1011.3
20260906004536 83 20 0.0 2.0 0.00 0.84 0.84 84 1011.4
20260906004033 83 20 0.0 3.0 0.00 0.84 0.84 85 1011.3
20260906003533 83 17 0.0 3.0 0.00 0.84 0.84 85 1011.3
20260906003033 83 123 0.0 2.0 0.00 0.84 0.84 85 1011.3
20260906002532 83 123 0.0 2.0 0.00 0.84 0.84 85 1011.4
20260906002033 83 123 0.0 2.0 0.00 0.84 0.84 85 1011.5
20260906001541 83 123 0.0 2.0 0.00 0.84 0.84 85 1011.5
20260906001032 84 123 0.0 1.0 0.00 0.84 0.84 85 1011.5
20260906000532 84 123 0.0 1.0 0.00 0.84 0.84 85 1011.5
20260906000032 84 123 0.0 2.0 0.00 0.84 0.84 85 1011.5
20260905235534 84 123 0.0 2.0 0.00 0.84 0.84 85 1011.5
20260905235033 83 123 0.0 2.0 0.00 0.84 0.84 84 1011.5
20260905234533 84 123 0.0 1.0 0.00 0.84 0.84 85 1011.7
20260905234031 83 123 0.0 2.0 0.00 0.84 0.84 84 1011.8
20260905233531 83 123 0.0 2.0 0.00 0.84 0.84 84 1011.8
20260905233035 84 123 0.0 2.0 0.00 0.84 0.84 83 1011.9
20260905232532 83 123 0.0 2.0 0.00 0.84 0.84 82 1011.9
20260905232034 83 123 0.0 2.0 0.00 0.84 0.84 83 1011.8
20260905231535 83 123 1.0 2.0 0.00 0.84 0.84 84 1011.7
20260905231032 83 123 1.0 2.0 0.00 0.84 0.84 84 1011.7
20260905230530 82 123 0.0 1.0 0.00 0.84 0.84 86 1011.6
20260905230030 82 123 0.0 2.0 0.00 0.84 0.84 87 1011.5
20260905225530 82 123 0.0 3.0 0.00 0.84 0.84 86 1011.6
20260905225031 82 123 1.0 3.0 0.00 0.84 0.84 86 1011.5
20260905224529 82 123 1.0 3.0 0.00 0.84 0.84 86 1011.4
20260905224037 81 123 0.0 4.0 0.00 0.84 0.84 87 1011.3
20260905223529 81 123 0.0 4.0 0.00 0.84 0.84 86 1011.4
20260905223029 81 123 1.0 3.0 0.01 0.84 0.84 86 1011.3
20260905222529 81 122 2.0 3.0 0.01 0.84 0.84 85 1011.4
20260905222032 81 129 1.0 3.0 0.02 0.84 0.84 86 1011.4
20260905221529 80 129 0.0 3.0 0.04 0.84 0.84 86 1011.3
20260905221029 80 129 1.0 4.0 0.07 0.84 0.84 85 1011.4
20260905220528 80 129 1.0 4.0 0.13 0.84 0.84 85 1011.4
20260905220030 79 129 1.0 4.0 0.20 0.84 0.84 85 1011.5
20260905215529 79 127 1.0 4.0 0.43 0.84 0.84 85 1011.3
20260905215028 79 123 1.0 7.0 0.73 0.84 0.84 85 1011.3
20260905214527 78 184 2.0 7.0 0.84 0.84 0.84 86 1011.4
20260905214026 78 163 2.0 6.0 0.84 0.84 0.84 87 1011.4
20260905213526 78 147 2.0 7.0 0.84 0.84 0.84 87 1011.6
20260905213025 78 132 3.0 7.0 0.83 0.83 0.83 87 1011.6
20260905212525 78 131 3.0 10.0 0.83 0.83 0.83 87 1011.8
20260905212025 78 160 3.0 12.0 0.82 0.82 0.82 86 1012.0
20260905211524 78 129 6.0 12.0 0.80 0.80 0.80 84 1012.3
20260905211025 79 117 6.0 13.0 0.76 0.76 0.76 83 1012.4
20260905210525 80 103 5.0 10.0 0.70 0.70 0.70 79 1012.6
20260905210025 82 68 2.0 13.0 0.63 0.63 0.63 76 1012.7
20260905205524 86 23 6.0 13.0 0.37 0.37 0.37 70 1012.7
20260905205024 90 55 3.0 13.0 0.06 0.06 0.06 70 1012.5
20260905204525 90 253 3.0 13.0 0.00 0.00 0.00 63 1012.1
20260905204022 91 53 4.0 11.0 0.00 0.00 0.00 60 1011.8
20260905203522 93 135 3.0 11.0 0.00 0.00 0.00 59 1011.7
20260905203023 94 155 4.0 10.0 0.00 0.00 0.00 57 1011.6
20260905202524 94 224 2.0 8.0 0.00 0.00 0.00 56 1011.6
20260905202021 94 192 2.0 8.0 0.00 0.00 0.00 55 1011.6
20260905201522 95 350 1.0 6.0 0.00 0.00 0.00 54 1011.7
20260905201020 94 186 1.0 6.0 0.00 0.00 0.00 54 1011.7
20260905200526 95 165 2.0 6.0 0.00 0.00 0.00 52 1011.7
20260905200020 95 166 4.0 9.0 0.00 0.00 0.00 52 1011.8
20260905195519 95 111 3.0 11.0 0.00 0.00 0.00 52 1011.8
20260905195019 95 175 4.0 11.0 0.00 0.00 0.00 52 1011.9
20260905194518 96 169 5.0 9.0 0.00 0.00 0.00 49 1012.1
20260905194018 95 149 3.0 8.0 0.00 0.00 0.00 51 1012.0
20260905193517 96 130 4.0 10.0 0.00 0.00 0.00 49 1012.0
20260905193017 98 175 4.0 10.0 0.00 0.00 0.00 47 1012.1
20260905192520 98 162 2.0 7.0 0.00 0.00 0.00 45 1012.2
20260905192015 99 137 1.0 8.0 0.00 0.00 0.00 44 1012.2
20260905191515 98 159 1.0 8.0 0.00 0.00 0.00 46 1012.3
20260905191015 98 158 3.0 8.0 0.00 0.00 0.00 46 1012.3
20260905190517 98 162 1.0 6.0 0.00 0.00 0.00 45 1012.5
20260905190026 98 159 1.0 5.0 0.00 0.00 0.00 46 1012.5
20260905185513 97 20 1.0 5.0 0.00 0.01 0.00 48 1012.5
20260905185015 96 157 1.0 5.0 0.00 0.01 0.00 48 1012.6
20260905184513 97 27 1.0 4.0 0.00 0.01 0.00 47 1012.6
20260905184012 96 106 2.0 4.0 0.00 0.01 0.00 47 1012.7
20260905183512 96 62 1.0 4.0 0.00 0.01 0.00 49 1012.8
20260905183015 96 22 1.0 4.0 0.00 0.01 0.00 50 1012.8
20260905182512 96 5 1.0 3.0 0.00 0.01 0.00 52 1012.9
20260905182012 96 36 1.0 5.0 0.00 0.01 0.00 55 1013.1
20260905181513 96 34 2.0 5.0 0.00 0.01 0.00 54 1013.2
20260905181011 97 355 1.0 4.0 0.00 0.01 0.00 56 1013.5
20260905180511 97 355 1.0 4.0 0.00 0.01 0.00 49 1013.4
20260905180012 97 44 0.0 5.0 0.00 0.01 0.00 49 1013.5
20260905175510 98 45 1.0 5.0 0.00 0.01 0.00 47 1013.7
20260905175009 100 325 2.0 6.0 0.00 0.01 0.00 45 1013.7
20260905174510 101 332 1.0 6.0 0.00 0.01 0.00 44 1013.8